#timestamp,LO_Frequency,Hit,StdDev 
1546441215.2,286046998.9,N
1546441235.0,286046999.0,N
1546441235.9,286046999.0,N
1546441255.8,286046999.0,N
1546441275.6,286046999.0,N
1546441295.4,286046999.0,N
1546441315.3,286046999.5,N
1546441335.1,286046998.9,N
1546441355.9,286046998.6,N
1546441375.7,286046999.0,N
1546441395.5,286046998.1,N
1546441415.4,286046999.4,N
1546441435.2,286046996.5,Y
1546441455.1,286046998.4,P
1546441456.0,286046998.4,P
1546441475.8,286047000.9,P
1546441495.6,286046999.9,N
1546441515.5,286047000.4,N
1546441535.3,286047000.7,N
1546441555.2,286046998.2,N
1546441575.0,286047000.7,N
1546441575.9,286047000.7,N
1546441595.7,286046998.6,N
1546441615.6,286047000.0,N
1546441635.4,286046998.1,N
1546441655.3,286047000.9,N
1546441675.1,286047001.1,N
1546441676.0,286047001.1,N
1546441695.8,286047000.8,N
1546441715.7,286047002.7,N
1546441735.5,286046999.7,N
1546441755.3,286047000.6,N
1546441775.2,286047000.5,N
1546441795.0,286047000.8,N
1546441795.9,286047000.8,N
1546441815.8,286046999.8,N
1546441835.6,286047000.6,N
1546441855.4,286046998.2,N
1546441875.3,286047000.9,N
1546441895.1,286047000.1,N
1546441915.9,286047000.2,N
1546441935.7,286047002.5,N
1546441955.5,286047001.8,N
1546441975.4,286047003.7,Y
1546441995.2,286047001.3,P
1546442015.0,286047002.2,P
1546442016.0,286047002.2,N
1546442035.8,286047002.6,Y
1546442055.6,286047000.8,P
1546442075.5,286046999.4,N
1546442095.3,286046998.4,N
1546442115.1,286047000.0,N
1546442135.9,286046999.8,N
1546442155.7,286047003.9,Y
1546442175.6,286047003.2,P
1546442195.4,286047001.9,N
1546442215.2,286046999.9,N
1546442235.1,286047000.4,N
1546442236.0,286047000.4,N
1546442255.8,286047002.6,N
1546442275.6,286047002.8,N
1546442295.5,286047002.3,N
1546442315.3,286047000.0,N
1546442335.2,286047000.1,N
1546442355.9,286047000.9,N
1546442375.7,286047000.2,N
1546442395.6,286047002.5,N
1546442415.4,286047002.5,N
1546442435.3,286047004.1,Y
1546442455.1,286046999.8,P
1546442456.0,286046999.8,N
1546442475.8,286047000.4,N
1546442495.7,286047000.3,N
1546442515.5,286046999.7,N
1546442535.4,286047001.4,N
1546442555.2,286047002.0,N
1546442575.0,286047002.7,Y
1546442575.9,286047002.7,P
1546442595.8,286047001.1,N
1546442615.6,286046998.6,N
1546442635.4,286046999.6,N
1546442655.3,286046999.0,N
1546442675.1,286046998.6,N
1546442695.9,286046996.9,N
1546442715.7,286046996.6,N
1546442735.6,286046998.8,N
1546442755.4,286046996.6,N
1546442775.2,286046998.8,N
1546442795.1,286046999.0,N
1546442796.0,286046999.0,N
1546442815.8,286047000.7,N
1546442835.7,286046998.8,N
1546442855.5,286047000.7,N
1546442875.3,286047000.9,N
1546442895.2,286047000.0,N
1546442915.0,286047000.7,N
1546442915.9,286047000.7,N
1546442935.7,286047001.0,N
1546442955.6,286046998.7,N
1546442975.4,286046998.3,N
1546442995.3,286046998.9,N
1546443015.1,286047000.7,N
1546443016.0,286047000.7,N
1546443035.8,286047000.4,N
1546443055.7,286047000.0,N
1546443075.5,286046999.8,N
1546443095.3,286047000.9,N
1546443115.2,286047000.9,N
1546443135.0,286047000.0,N
1546443135.9,286047000.0,N
1546443155.8,286047002.5,N
1546443175.6,286046999.7,N
1546443195.4,286047000.5,N
1546443215.3,286047000.2,N
1546443235.1,286047002.8,N
1546443255.9,286047001.7,N
1546443275.7,286047003.7,N
1546443295.5,286047003.8,Y
1546443315.3,286047001.4,P
1546443335.2,286047001.3,N
1546443355.0,286047002.0,P
1546443355.9,286047002.0,Y
1546443375.8,286047000.3,P
1546443395.6,286046999.3,N
1546443415.4,286046999.2,N
1546443435.3,286046999.3,N
1546443455.1,286046999.4,N
1546443475.8,286046996.8,Y
1546443495.7,286046999.5,P
1546443545.6,286046996.5,E
1546443555.5,286047000.7,N
1546443575.3,286047001.7,P
1546443595.2,286047002.0,P
1546443615.9,286047001.5,N
1546443635.7,286047001.6,Y
1546443655.6,286046999.7,P
1546443675.4,286047000.2,N
1546443695.3,286047000.9,N
1546443715.1,286047002.3,Y
1546443716.0,286047002.3,P
1546443735.8,286047002.2,N
1546443755.7,286047002.4,N
1546443775.5,286047000.2,N
1546443795.3,286046999.9,N
1546443815.2,286047001.8,N
1546443835.0,286047002.3,N
1546443835.9,286047002.3,N
1546443855.8,286047002.2,N
1546443875.6,286047001.4,N
1546443895.4,286047002.2,N
1546443915.3,286047002.0,N
1546443935.1,286047000.6,N
1546443955.8,286047000.3,N
1546443975.7,286047002.1,N
1546443995.5,286047004.0,Y
1546444015.4,286047002.0,P
1546444035.2,286047000.5,N
1546444055.0,286047001.1,N
1546444055.9,286047001.1,N
1546444075.8,286047000.2,N
1546444095.6,286047002.5,Y
1546444115.5,286047000.8,P
1546444135.3,286047000.0,N
1546444155.1,286047000.9,N
1546444175.9,286047001.1,N
1546444195.7,286046997.0,Y
1546444215.5,286046997.8,P
1546444235.4,286046996.8,N
1546444255.2,286046996.7,N
1546444275.1,286046997.4,N
1546444276.0,286046997.4,N
1546444295.8,286046996.5,N
1546444315.6,286046997.7,N
1546444335.5,286046997.1,N
1546444355.3,286046999.4,N
1546444375.1,286046999.2,N
1546444395.9,286046998.4,N
1546444415.7,286046998.6,N
1546444435.6,286046998.6,N
1546444455.4,286047000.2,N
1546444475.2,286047002.8,N
1546444495.1,286047002.8,N
1546444496.0,286047002.8,N
1546444515.8,286046999.9,N
1546444535.7,286047000.6,N
1546444555.5,286047000.1,N
1546444575.3,286046998.1,N
1546444595.2,286047000.8,N
1546444615.0,286047001.0,N
1546444615.9,286047001.0,N
1546444635.7,286046998.8,N
1546444655.6,286046999.8,N
1546444675.4,286047000.8,N
1546444695.3,286047001.2,N
1546444715.1,286046998.8,N
1546444716.0,286046998.8,N
1546444735.8,286046998.5,N
1546444755.7,286046997.3,N
1546444775.5,286046997.1,N
1546444795.3,286046997.8,N
